{"data":{"norad_id":48234,"epoch":"2026-05-25T02:55:09.651072Z","epoch_age_seconds":57785,"freshness":"FRESH","line1":"1 48234U 21031AA  26145.12163948 -.00000071  00000+0 -22499-3 0  9998","line2":"2 48234  87.8951 294.2949 0001932  92.6274 267.5077 13.14502128245232","mean_motion":13.14502128,"eccentricity":0.0001932,"inclination_deg":87.8951,"raan_deg":294.2949,"arg_perigee_deg":92.6274,"mean_anomaly_deg":267.5077,"bstar":-0.00022499,"rev_number":24523,"period_min":109.54717906702,"perigee_km":1204.3277240838,"apogee_km":1207.2581546124,"semimajor_km":7583.9299393481,"source":"CELESTRAK","updated_at":"2026-05-25T13:38:22.438365Z"}}